Location: ????????
(56.1167°N, 38.6333°E)
Time: 21:57:52
(UTC+00:00)

CZ-2D R/B - Pass Details

Date: 18 November 2025
Orbit: 404 x 413 km, 97.4° (Epoch: 06 December)

Event Time Altitude Azimuth Distance (km) Brightness Sun altitude
Rises 14:52:14 0° 169° (S) 2,331 6.6 -13.5°
Reaches altitude 10° 14:54:13 10° 172° (S) 1,473 5.6 -13.7°
Maximum altitude 14:57:21 69° 257° (WSW) 443 3.0 -14.2°
Drops below altitude 10° 15:00:31 10° 341° (NNW) 1,481 5.6 -14.6°
Sets 15:02:31 0° 344° (NNW) 2,347 6.6 -14.9°
